Regional Weather Roundup
Issued by NWS Newport/Morehead, NC

Current Version | Previous Version | Graphics & Text | Print | Product List | Glossary Off
Versions: 1 2 3 4 5 6 7 8 9 10 11 12 13 14 15 16 17 18 19 20 21 22 23 24 25 26 27 28 29 30 31 32 33 34 35 36 37 38 39 40 41 42 43 44 45 46 47 48 49 50

000
ASUS42 KMHX 250125
RWRMHX
WEATHER ROUNDUP FOR EASTERN NORTH CAROLINA
NATIONAL WEATHER SERVICE NEWPORT/MOREHEAD CITY NC
900 PM EDT WED AUG 24 2016

NOTE: "FAIR" INDICATES FEW OR NO CLOUDS BELOW 12,000 FEET
WITH NO SIGNIFICANT WEATHER AND/OR OBSTRUCTIONS TO VISIBILITY

NCZ015>017-031-032-045>047-102-103-250200-
NORTH COAST

CITY           SKY/WX    TMP DP  RH WIND       PRES   REMARKS
EDENTON        CLEAR     75  68  79 CALM      30.22R
ELIZABETH CITY CLEAR     75  68  78 E7        30.22R
KITTY HAWK     CLEAR     76  72  87 CALM      30.21R
MANTEO         MOCLDY    77  70  79 E3        30.22R

$$

NCZ045>047-081-094-103-104-250200-
CENTRAL COAST

CITY           SKY/WX    TMP DP  RH WIND       PRES   REMARKS
FRISCO         CLEAR     76  69  79 E6        30.20S

$$

NCZ095-097-098-100-101-250200-
SOUTHERN COAST

CITY           SKY/WX    TMP DP  RH WIND       PRES   REMARKS
BEAUFORT       CLOUDY    76  74  93 N3        30.19S
CEDAR ISLAND   NOT AVBL
JACKSONVILLE   PTCLDY    78  66  66 NE9       30.19R
PINEY ISLAND   NOT AVBL
WILMINGTON     PTCLDY    76  65  68 N3        30.19S


$$

NCZ011>013-027>030-043-044-078>080-089-090>093-098-250200-
COASTAL PLAIN

CITY           SKY/WX    TMP DP  RH WIND       PRES   REMARKS
AHOSKIE        PTCLDY    69  67  93 CALM      30.22R
CLINTON        CLOUDY    74  67  80 CALM      30.20S
ELIZABETHTOWN  CLOUDY    75  65  69 CALM      30.19S
GOLDSBORO      PTCLDY    75  67  77 E2        30.18S
GREENVILLE     MOCLDY    72  66  83 CALM      30.22R
HAVELOCK       CLOUDY    78  71  79 E3        30.20S
KENANSVILLE    NOT AVBL
KINSTON        PTCLDY    72  68  88 CALM      30.21S
NEW BERN       PTCLDY    75  68  78 E3        30.21R
RICHLANDS      MOCLDY    73  68  84 CALM      30.20S
ROCKY MOUNT    PTCLDY    70  67  90 CALM      30.21S
WASHINGTON     MOCLDY    72  65  79 E3        30.21R
WHITEVILLE     MOCLDY    73  67  80 CALM      30.18S

$$

AMZ130-135-150-152-154-156-158-170-250-252-270-ANZ085-086-088-633-658-670-250200-
MARINE OBSERVATIONS

STATION/POSITION TIME  TEMP    WIND        PRES    WAVE   SWELL
                       AIR SEA DIR/SP/G            HT/PER HT/PER
                 (UTC) (F)     (DEG/KT/KT) (MB)    (FT/S) (FT/S)
CHESAPEAKE LIGHT NOT AVBL
64 E VA BEACH    0050   78 81   90/  6/  8 1023.1    3/11   3/11
DUCK             0000   78 79   60/  6/  7 1022.3
2 E DUCK         0011      77                N/A     2/12
OREGON INLET     0000   77 79   90/  3/  4 1022.6
13E OREGON INLT  0100      79                N/A     3/11   3/11
HATTERAS CG      0000   79 80   70/  3/  4 1022.2
DIAMOND BUOY     0050   81 84   80/ 12/ 16 1022.4    3/11   2/11
CAPE LOOKOUT     0100   81      90/ 12/ 12 1021.9
BEAUFORT LAB     0000   76 81   40/  5/  5 1021.7
30 SE NEW RVR IN 0108   80 84  100/ 14/ 17 1021.9
30 SE NEW RVR IN 0025      84                N/A     3/ 5
27 SE WRIGHTSVLE 0108   81 84   50/ 10/ 14 1021.8
5 SE WRIGHTSVLE  0108   81 83   50/ 12/ 16 1023.0
225 S CAPE HAT   0050   83 85   60/ 12/ 16 1019.6    4/ 5   3/10
41 SE CHARLESTON 0050   81 84   60/ 14/ 16 1021.0    4/ 6   2/ 7

$$




USA.gov is the U.S. government's official web portal to all federal, state and local government web resources and services.